Location: Unspecified
(0.0000°N, 0.0000°E)
Time: 02:16:01
(UTC+00:00)

Tiros 1 - Pass Details

Date: 18 April 2026
Orbit: 618 x 648 km, 48.4° (Epoch: 15 May)

Event Time Altitude Azimuth Distance (km) Brightness Sun altitude
Rises 18:24:51 0° 325° (NW) 2,934 11.3 -6.3°
Reaches altitude 10° 18:27:10 10° 327° (NNW) 2,030 10.4 -6.8°
Maximum altitude 18:31:50 73° 51° (NE) 676 7.1 -8.0°
Drops below altitude 10° 18:36:32 10° 136° (SE) 2,042 9.2 -9.1°
Enters shadow 18:37:20 - 137° (SE) 2,350 9.5 -9.3°
